Главная страница
METAR-TAF:

METAR-TAF

Аэропорты :

Хорремабад, Иран

широта: 33-26-11N, долгота: 048-17-09E, высота над уровнем моря: 1155 м

Текущие метеонаблюдения

Эта сводка был подготовлена 26 минут назад, в 16:00 UTC
Ветер 4 Узел от юго-восточный
Температура 18°C
Влажность 45%
Давление 1013 hPa
Видимость 10 км и более
небольшая облачность на высоте 9000 фута

METAR: OICK 171600Z 13004KT 9999 FEW090 18/06 Q1013

Время: 20:56 (16:26 UTC)


TAF: отсутствует

Метеонаблюдения и прогнозы для более 4000 аэропортов (сводки METAR и TAF).

Имеющиеся станции представлены на карте желтыми и красными точками.

Чтобы увидеть название станции, наведите на нее мышь.

Затем щелкните, чтобы увидеть метеонаблюдения и метеопрогнозы.

Управление картой: чтобы увеличить масштаб, щелкните зеленые кнопки с черным крестиком; чтобы уменьшить масштаб, щелкните зеленую кнопку с тире; для просмотра соседних карт щелкайте зеленые стрелки.


METAR-TAF: